period_start,C,m1,H,J0,J1,J2,J3,J4,J5,JA,JB,JC,JD,JJ,JK,JN,#
2013-09-04 00:00:35,0.32,0.43,0.00,26.56,28.12,30.23,5.77,29.75,1003.45,2048.11,3322.83,3214.43,3488.32,350.74,316.57,3.82,0000 0000 0000 0000 000000
2013-09-04 00:01:36,0.28,0.43,0.00,26.62,28.12,30.24,5.75,29.67,1003.44,2048.10,3322.27,3214.15,3487.89,349.91,315.82,3.83,0000 0000 0000 0000 000000
2013-09-04 00:02:36,0.20,0.43,0.00,26.64,28.12,30.26,5.73,29.33,1003.45,2048.06,3321.71,3213.87,3487.38,350.82,316.63,3.83,0000 0000 0000 0000 000000
2013-09-04 00:03:36,0.18,0.44,0.00,26.68,28.12,30.29,5.83,29.71,1003.44,2048.07,3321.27,3213.38,3487.13,350.68,316.45,3.84,0000 0000 0000 0000 000000
2013-09-04 00:04:36,0.18,0.44,0.00,26.65,28.12,30.29,5.97,29.54,1003.44,2048.07,3320.77,3213.13,3486.86,351.18,316.94,3.84,0000 0000 0000 0000 000000
2013-09-04 00:05:37,0.15,0.44,0.00,26.65,28.12,30.27,5.81,29.67,1003.44,2048.04,3320.07,3212.78,3486.34,349.63,315.54,3.85,0000 0000 0000 0000 000000
2013-09-04 00:06:37,0.23,0.44,0.00,26.61,28.12,30.20,5.84,29.75,1003.43,2048.05,3319.11,3212.28,3485.80,349.83,315.75,3.86,0000 0000 0000 0000 000000
2013-09-04 00:07:37,0.30,0.44,0.00,26.62,28.12,30.31,5.72,29.75,1003.43,2048.09,3317.98,3211.67,3485.24,350.70,316.53,3.86,0000 0000 0000 0000 000000
2013-09-04 00:08:38,0.42,0.44,0.00,26.62,28.12,30.32,5.93,29.71,1003.43,2048.13,3316.79,3211.13,3484.56,350.77,316.60,3.87,0000 0000 0000 0000 000000
2013-09-04 00:09:38,0.39,0.45,0.00,26.62,28.12,30.30,5.64,29.75,1003.43,2048.08,3315.48,3210.43,3483.92,349.33,315.30,3.87,0000 0000 0000 0000 000000
2013-09-04 00:10:38,0.41,0.45,0.00,26.57,28.12,30.30,5.83,29.58,1003.43,2048.05,3313.91,3209.65,3483.05,348.84,314.94,3.88,0000 0000 0000 0000 000000
2013-09-04 00:11:39,0.45,0.45,0.00,26.59,28.12,30.33,5.73,29.83,1003.43,2048.04,3312.21,3208.83,3482.11,349.54,315.45,3.89,0000 0000 0000 0000 000000
2013-09-04 00:12:39,0.53,0.46,0.00,26.55,28.12,30.33,5.76,29.75,1003.43,2048.05,3310.47,3207.94,3481.17,350.23,316.18,3.89,0000 0000 0000 0000 000000
2013-09-04 00:13:39,0.58,0.46,0.00,26.57,28.13,30.35,5.78,29.58,1003.43,2048.07,3308.63,3207.04,3480.18,349.66,315.65,3.90,0000 0000 0000 0000 000000
2013-09-04 00:14:39,0.59,0.46,0.00,26.59,28.13,30.28,5.77,29.71,1003.43,2048.03,3306.59,3206.01,3479.14,349.07,315.10,3.90,0000 0000 0000 0000 000000
2013-09-04 00:15:40,0.60,0.47,0.00,26.57,28.13,30.29,5.70,29.67,1003.43,2048.03,3304.48,3204.99,3478.02,349.93,315.90,3.91,0000 0000 0000 0000 000000
2013-09-04 00:16:40,0.67,0.47,0.00,26.60,28.14,30.32,5.74,29.63,1003.43,2048.04,3302.31,3203.91,3476.93,349.52,315.42,3.92,0000 0000 0000 0000 000000
2013-09-04 00:17:40,0.67,0.47,0.00,26.61,28.14,30.34,5.98,29.67,1003.43,2048.02,3300.38,3202.93,3475.87,350.80,316.37,3.92,0000 0000 0000 0000 000000
2013-09-04 00:18:40,0.61,0.48,0.00,26.70,28.14,30.35,5.88,29.79,1003.43,2048.04,3298.62,3202.09,3474.91,350.37,315.84,3.93,0000 0000 0000 0000 000000
2013-09-04 00:19:41,0.58,0.48,0.00,26.61,28.15,30.32,5.77,29.58,1003.43,2048.03,3296.99,3201.33,3474.08,350.04,315.94,3.93,0000 0000 0000 0000 000000
2013-09-04 00:20:41,0.48,0.48,0.00,26.56,28.15,30.36,5.83,29.71,1003.43,2048.01,3295.64,3200.58,3473.39,350.26,316.20,3.94,0000 0000 0000 0000 000000
2013-09-04 00:21:41,0.40,0.49,0.00,26.50,28.15,30.34,5.73,29.71,1003.43,2048.02,3294.57,3200.16,3472.76,349.43,315.52,3.94,0000 0000 0000 0000 000000
2013-09-04 00:22:41,0.33,0.49,0.00,26.55,28.15,30.33,5.82,29.79,1003.43,2048.02,3293.65,3199.55,3472.28,349.94,315.92,3.95,0000 0000 0000 0000 000000
2013-09-04 00:23:41,0.29,0.49,0.00,26.61,28.15,30.29,5.83,29.71,1003.43,2048.01,3292.79,3199.20,3471.95,349.57,315.53,3.96,0000 0000 0000 0000 000000
2013-09-04 00:24:42,0.23,0.49,0.00,26.61,28.15,30.32,5.80,29.63,1003.43,2048.00,3292.02,3198.98,3471.40,349.57,315.52,3.96,0000 0000 0000 0000 000000
2013-09-04 00:25:42,0.25,0.49,0.00,26.53,28.15,30.38,5.91,29.63,1003.43,2048.00,3291.16,3198.42,3470.97,350.62,316.55,3.97,0000 0000 0000 0000 000000
2013-09-04 00:26:42,0.30,0.49,0.00,26.55,28.15,30.37,5.93,29.58,1003.43,2048.00,3290.31,3198.11,3470.39,351.09,316.97,3.97,0000 0000 0000 0000 000000
2013-09-04 00:27:42,0.24,0.49,0.00,26.53,28.15,30.37,5.76,29.67,1003.43,2048.02,3289.48,3197.67,3470.09,349.62,315.65,3.98,0000 0000 0000 0000 000000
2013-09-04 00:28:42,0.27,0.50,0.00,26.53,28.15,30.38,5.91,29.63,1003.43,2048.01,3288.57,3197.23,3469.57,350.64,316.58,3.99,0000 0000 0000 0000 000000
2013-09-04 00:29:42,0.29,0.50,0.00,26.56,28.15,30.37,5.80,29.75,1003.43,2048.02,3287.47,3196.68,3469.02,350.80,316.69,3.99,0000 0000 0000 0000 000000
2013-09-04 00:30:43,0.37,0.50,0.00,26.59,28.15,30.39,5.84,29.67,1003.43,2048.03,3286.18,3196.09,3468.32,350.11,316.04,4.00,0000 0000 0000 0000 000000
2013-09-04 00:31:43,0.42,0.50,0.00,26.61,28.15,30.41,5.73,29.71,1003.43,2048.02,3284.75,3195.40,3467.58,349.76,315.65,4.00,0000 0000 0000 0000 000000
2013-09-04 00:32:43,0.40,0.51,0.00,26.58,28.15,30.38,5.92,29.75,1003.43,2048.02,3283.45,3194.68,3466.84,350.37,316.28,4.01,0000 0000 0000 0000 000000
2013-09-04 00:33:43,0.45,0.51,0.00,26.57,28.16,30.36,5.86,29.38,1003.43,2048.02,3282.32,3194.21,3466.30,349.48,315.49,4.01,0000 0000 0000 0000 000000
2013-09-04 00:34:44,0.29,0.51,0.00,26.62,28.17,30.34,5.80,29.75,1003.43,2048.01,3281.53,3193.78,3466.01,350.17,316.01,4.02,0000 0000 0000 0000 000000
2013-09-04 00:35:44,0.23,0.51,0.00,26.64,28.17,30.37,5.81,29.79,1003.43,2048.02,3281.15,3193.32,3465.54,349.84,316.06,4.03,0000 0000 0000 0000 000000
2013-09-04 00:36:44,0.20,0.51,0.00,26.69,28.17,30.38,5.91,29.75,1003.42,2048.02,3280.70,3193.11,3465.20,350.69,316.44,4.03,0000 0000 0000 0000 000000
2013-09-04 00:37:44,0.14,0.51,0.00,26.68,28.17,30.41,5.81,29.63,1003.38,2048.00,3280.28,3193.04,3465.06,349.03,314.94,4.04,0000 0000 0000 0000 000000
2013-09-04 00:38:45,0.07,0.51,0.00,26.65,28.17,30.37,5.70,29.46,1003.39,2048.00,3280.10,3192.99,3465.00,350.26,316.22,4.04,0000 0000 0000 0000 000000
2013-09-04 00:39:45,0.03,0.51,0.00,26.69,28.17,30.38,5.87,29.75,1003.38,2048.00,3280.01,3192.97,3464.94,350.62,315.76,4.05,0000 0000 0000 0000 000000
2013-09-04 00:40:45,0.01,0.51,0.00,26.74,28.17,30.39,5.63,29.92,1003.34,2048.00,3279.83,3192.83,3464.78,349.20,315.02,4.06,0000 0000 0000 0000 000000
2013-09-04 00:41:46,0.10,0.51,0.00,26.73,28.17,30.39,5.53,29.79,1003.37,2048.00,3279.40,3192.41,3464.42,349.28,315.12,4.06,0000 0000 0000 0000 000000
2013-09-04 00:42:46,0.19,0.52,0.00,26.72,28.17,30.40,5.54,29.58,1003.37,2048.00,3279.14,3192.16,3464.15,349.06,314.94,4.07,0000 0000 0000 0000 000000
2013-09-04 00:43:46,0.11,0.52,0.00,26.68,28.17,30.40,5.86,29.79,1003.37,2048.00,3279.05,3192.05,3464.05,350.54,316.31,4.07,0000 0000 0000 0000 000000
2013-09-04 00:44:46,0.04,0.52,0.00,26.69,28.17,30.40,5.75,29.79,1003.33,2048.00,3279.00,3192.02,3464.01,350.06,316.19,4.08,0000 0000 0000 0000 000000
2013-09-04 00:45:46,0.01,0.52,0.00,26.69,28.17,30.35,5.75,29.50,1003.30,2048.00,3278.84,3192.00,3463.98,349.50,315.34,4.09,0000 0000 0000 0000 000000
2013-09-04 00:46:47,0.03,0.52,0.00,26.67,28.17,30.38,6.00,29.79,1003.24,2048.00,3278.52,3192.00,3463.97,350.60,316.33,4.09,0000 0000 0000 0000 000000
2013-09-04 00:47:47,0.05,0.52,0.00,26.68,28.17,30.34,5.70,29.63,1003.18,2048.00,3278.22,3192.00,3463.88,349.67,315.64,4.10,0000 0000 0000 0000 000000
2013-09-04 00:48:47,0.05,0.52,0.00,26.60,28.18,30.29,5.92,29.71,1003.14,2048.00,3278.07,3191.95,3463.62,350.61,316.38,4.10,0000 0000 0000 0000 000000
2013-09-04 00:49:47,0.08,0.52,0.00,26.52,28.18,30.23,5.82,29.75,1003.07,2048.01,3278.01,3191.72,3463.29,350.43,316.56,4.11,0000 0000 0000 0000 000000
2013-09-04 00:50:48,0.11,0.52,0.00,26.50,28.19,30.30,5.80,29.54,1003.10,2048.02,3277.98,3191.43,3463.12,349.98,315.90,4.11,0000 0000 0000 0000 000000
2013-09-04 00:51:48,0.08,0.52,0.00,26.53,28.20,30.31,5.87,29.58,1003.12,2048.01,3277.84,3191.20,3463.04,350.79,316.61,4.12,0000 0000 0000 0000 000000
2013-09-04 00:52:48,0.06,0.52,0.00,26.56,28.20,30.35,5.78,29.58,1003.24,2048.00,3277.45,3191.07,3463.01,348.96,315.13,4.13,0000 0000 0000 0000 000000
2013-09-04 00:53:48,0.07,0.52,0.00,26.61,28.20,30.31,5.78,29.63,1003.27,2048.00,3277.21,3191.03,3463.00,349.79,315.71,4.13,0000 0000 0000 0000 000000
2013-09-04 00:54:48,0.04,0.52,0.00,26.62,28.20,30.28,5.64,29.63,1003.27,2047.99,3277.09,3191.00,3462.99,349.93,315.75,4.14,0000 0000 0000 0000 000000
2013-09-04 00:55:49,0.01,0.52,0.00,26.57,28.20,30.21,5.81,29.63,1003.27,2047.99,3277.03,3191.00,3462.95,350.05,315.96,4.14,0000 0000 0000 0000 000000
2013-09-04 00:56:49,0.01,0.52,0.00,26.63,28.20,30.24,5.82,29.75,1003.27,2047.99,3277.01,3191.00,3462.88,350.44,316.25,4.15,0000 0000 0000 0000 000000
2013-09-04 00:57:49,0.01,0.52,0.00,26.63,28.20,30.25,5.68,29.54,1003.32,2047.99,3276.99,3190.98,3462.68,348.67,315.10,4.16,0000 0000 0000 0000 000000
2013-09-04 00:58:49,0.04,0.52,0.00,26.61,28.20,30.17,5.86,29.67,1003.24,2047.98,3276.94,3190.92,3462.36,350.43,316.25,4.16,0000 0000 0000 0000 000000
2013-09-04 00:59:49,0.05,0.52,0.00,26.59,28.20,30.11,5.77,29.63,1003.15,2047.98,3276.85,3190.82,3462.16,350.22,316.05,4.17,0000 0000 0000 0000 000000
2013-09-04 01:00:50,0.04,0.52,0.00,26.61,28.20,30.18,5.78,29.58,1003.13,2047.99,3276.64,3190.59,3462.06,350.25,316.13,4.17,0000 0000 0000 0000 000000
2013-09-04 01:01:50,0.13,0.52,0.00,26.62,28.21,30.20,5.83,29.75,1003.02,2047.97,3276.27,3190.26,3462.02,349.88,315.50,4.18,0000 0000 0000 0000 000000
2013-09-04 01:02:50,0.07,0.52,0.00,26.60,28.22,30.17,5.77,29.83,1003.06,2047.98,3276.13,3190.14,3462.00,349.72,315.57,4.18,0000 0000 0000 0000 000000
2013-09-04 01:03:50,0.06,0.52,0.00,26.66,28.22,30.25,5.73,29.54,1003.11,2047.97,3276.05,3190.05,3462.00,349.72,315.18,4.19,0000 0000 0000 0000 000000
2013-09-04 01:04:50,0.02,0.52,0.00,26.72,28.22,30.25,5.75,29.50,1003.18,2047.98,3276.01,3190.02,3462.00,349.80,315.54,4.20,0000 0000 0000 0000 000000
2013-09-04 01:05:51,0.01,0.52,0.00,26.73,28.22,30.23,5.72,29.67,1003.26,2047.98,3276.00,3190.00,3461.98,349.71,315.46,4.20,0000 0000 0000 0000 000000
2013-09-04 01:06:51,0.00,0.52,0.00,26.71,28.22,30.18,5.80,29.50,1003.29,2047.98,3275.99,3190.00,3461.95,349.70,315.49,4.21,0000 0000 0000 0000 000000
2013-09-04 01:07:51,0.00,0.52,0.00,26.77,28.22,30.25,5.84,29.50,1003.30,2047.98,3275.97,3190.00,3461.89,350.08,315.78,4.21,0000 0000 0000 0000 000000
2013-09-04 01:08:51,0.00,0.52,0.00,26.76,28.22,30.26,5.78,29.71,1003.28,2047.99,3275.97,3190.00,3461.79,349.85,315.57,4.22,0000 0000 0000 0000 000000
2013-09-04 01:09:52,0.01,0.52,0.00,26.76,28.22,30.28,5.87,29.50,1003.29,2047.97,3275.84,3189.99,3461.53,351.25,316.83,4.23,0000 0000 0000 0000 000000
2013-09-04 01:10:52,0.03,0.52,0.00,26.80,28.22,30.22,5.90,29.54,1003.24,2047.97,3275.49,3189.98,3461.25,350.65,316.24,4.23,0000 0000 0000 0000 000000
2013-09-04 01:11:52,0.10,0.52,0.00,26.79,28.23,30.27,5.76,29.58,1003.19,2047.97,3275.22,3189.97,3461.13,350.33,315.95,4.24,0000 0000 0000 0000 000000
2013-09-04 01:12:52,0.06,0.52,0.00,26.80,28.24,30.32,5.76,29.71,1003.09,2047.96,3275.10,3189.89,3461.06,350.29,315.86,4.24,0000 0000 0000 0000 000000
2013-09-04 01:13:53,0.04,0.52,0.00,26.83,28.25,30.33,5.77,29.46,1003.05,2047.97,3275.05,3189.78,3461.02,350.35,315.88,4.25,0000 0000 0000 0000 000000
2013-09-04 01:14:53,0.02,0.52,0.00,26.83,28.25,30.32,5.70,29.38,1003.06,2047.94,3275.03,3189.75,3461.00,349.77,315.35,4.25,0000 0000 0000 0000 000000
2013-09-04 01:15:53,-0.03,0.52,0.00,26.85,28.25,30.31,5.78,29.50,1003.04,2047.90,3275.01,3189.61,3461.00,349.71,315.10,4.26,0000 0000 0000 0000 000000
2013-09-04 01:16:53,0.03,0.52,0.00,26.86,28.25,30.30,5.83,29.58,1003.00,2047.91,3275.00,3189.34,3461.00,350.44,315.91,4.27,0000 0000 0000 0000 000000
2013-09-04 01:17:53,0.06,0.52,0.00,26.90,28.25,30.23,5.78,29.58,1003.10,2047.91,3274.98,3189.18,3461.00,349.84,315.36,4.27,0000 0000 0000 0000 000000
2013-09-04 01:18:54,0.02,0.52,0.00,26.96,28.25,30.31,5.83,29.67,1003.13,2047.89,3274.96,3189.07,3460.98,350.55,315.83,4.28,0000 0000 0000 0000 000000
2013-09-04 01:19:54,0.00,0.52,0.00,27.03,28.26,30.35,5.69,29.50,1003.18,2047.89,3274.95,3189.03,3460.97,349.76,314.99,4.28,0000 0000 0000 0000 000000
2013-09-04 01:20:54,0.06,0.53,0.00,27.04,28.27,30.37,5.72,29.50,1003.25,2047.82,3274.88,3189.01,3460.88,349.99,315.38,4.29,0000 0000 0000 0000 000000
2013-09-04 01:21:54,-0.09,0.52,0.00,27.06,28.27,30.35,5.80,29.33,1003.28,2047.74,3274.68,3189.00,3460.61,349.69,315.12,4.30,0000 0000 0000 0000 000000
2013-09-04 01:22:54,0.02,0.52,0.00,27.10,28.27,30.34,5.77,29.67,1003.35,2047.65,3274.40,3189.00,3460.30,350.90,316.18,4.30,0000 0000 0000 0000 000000
2013-09-04 01:23:55,0.00,0.52,0.00,27.13,28.27,30.36,5.80,29.58,1003.38,2047.57,3274.17,3189.00,3460.16,349.83,314.81,4.31,0000 0000 0000 0000 000000
2013-09-04 01:24:55,0.00,0.52,0.00,27.11,28.27,30.37,5.74,29.63,1003.42,2047.61,3274.09,3189.00,3460.14,350.26,315.65,4.31,0000 0000 0000 0000 000000
2013-09-04 01:25:55,0.04,0.53,0.00,27.17,28.27,30.40,5.82,29.58,1003.43,2047.59,3274.09,3189.00,3460.10,351.10,316.03,4.32,0000 0000 0000 0000 000000
2013-09-04 01:26:55,0.00,0.53,0.00,27.18,28.29,30.32,5.65,29.50,1003.43,2047.41,3274.04,3188.99,3460.04,348.72,314.38,4.33,0000 0000 0000 0000 000000
2013-09-04 01:27:55,-0.16,0.52,0.00,27.15,28.30,30.37,5.87,29.54,1003.43,2047.31,3274.01,3188.98,3460.02,350.59,315.94,4.33,0000 0000 0000 0000 000000
2013-09-04 01:28:55,-0.06,0.52,0.00,27.18,28.30,30.41,5.67,29.58,1003.43,2047.23,3274.00,3188.90,3460.01,349.26,314.62,4.34,0000 0000 0000 0000 000000
2013-09-04 01:29:56,-0.02,0.52,0.00,27.16,28.30,30.40,5.72,29.54,1003.43,2047.13,3274.00,3188.78,3460.00,349.48,314.87,4.34,0000 0000 0000 0000 000000
2013-09-04 01:30:56,-0.04,0.52,0.00,27.24,28.30,30.39,5.69,29.46,1003.42,2047.12,3274.00,3188.57,3460.00,348.94,314.29,4.35,0000 0000 0000 0000 000000
2013-09-04 01:31:56,0.02,0.52,0.00,27.28,28.30,30.41,5.89,29.50,1003.43,2047.12,3273.95,3188.27,3459.99,350.83,315.96,4.35,0000 0000 0000 0000 000000
2013-09-04 01:32:56,0.10,0.52,0.00,27.24,28.32,30.46,5.87,29.54,1003.43,2047.08,3273.81,3188.13,3459.92,350.39,315.60,4.36,0000 0000 0000 0000 000000
2013-09-04 01:33:56,-0.01,0.52,0.00,27.22,28.32,30.47,5.70,29.54,1003.43,2047.06,3273.64,3188.06,3459.85,349.85,315.14,4.37,0000 0000 0000 0000 000000
2013-09-04 01:34:57,0.03,0.52,0.00,27.20,28.32,30.48,5.88,29.46,1003.43,2047.03,3273.37,3188.02,3459.68,350.58,315.82,4.37,0000 0000 0000 0000 000000
2013-09-04 01:35:57,0.07,0.52,0.00,27.20,28.32,30.46,5.74,29.50,1003.41,2047.02,3273.17,3188.00,3459.33,349.53,314.86,4.38,0000 0000 0000 0000 000000
2013-09-04 01:36:57,0.06,0.53,0.00,27.27,28.32,30.45,5.87,29.50,1003.41,2047.01,3273.06,3188.00,3459.14,350.66,315.93,4.38,0000 0000 0000 0000 000000
2013-09-04 01:37:57,0.01,0.53,0.00,27.25,28.33,30.36,5.66,29.38,1003.42,2047.01,3273.02,3188.00,3459.05,349.85,315.09,4.39,0000 0000 0000 0000 000000
2013-09-04 01:38:57,0.02,0.53,0.00,27.25,28.34,30.47,5.82,29.33,1003.42,2047.00,3273.00,3187.99,3459.02,349.29,314.61,4.40,0000 0000 0000 0000 000000
2013-09-04 01:39:58,0.00,0.53,0.00,27.25,28.35,30.50,5.77,29.75,1003.43,2047.00,3273.00,3187.97,3459.00,350.16,315.42,4.40,0000 0000 0000 0000 000000
2013-09-04 01:40:58,0.00,0.53,0.00,27.24,28.35,30.50,5.61,29.79,1003.43,2047.00,3272.97,3187.97,3459.00,349.09,314.74,4.41,0000 0000 0000 0000 000000
2013-09-04 01:41:58,0.01,0.53,0.00,27.24,28.35,30.54,5.73,29.88,1003.43,2047.00,3272.94,3187.86,3459.00,349.43,314.74,4.41,0000 0000 0000 0000 000000
2013-09-04 01:42:58,0.02,0.53,0.00,27.28,28.35,30.55,5.78,29.67,1003.43,2047.00,3272.68,3187.53,3458.95,350.21,315.34,4.42,0000 0000 0000 0000 000000
2013-09-04 01:43:58,0.13,0.53,0.00,27.28,28.37,30.55,5.62,29.63,1003.43,2047.00,3272.46,3187.34,3458.97,349.79,315.24,4.42,0000 0000 0000 0000 000000
2013-09-04 01:44:59,0.05,0.53,0.00,27.30,28.37,30.58,5.66,29.58,1003.43,2047.00,3272.31,3187.28,3458.94,349.68,314.90,4.43,0000 0000 0000 0000 000000
2013-09-04 01:45:59,0.03,0.53,0.00,27.30,28.37,30.56,5.87,29.71,1003.39,2047.00,3272.15,3187.20,3458.86,350.07,315.24,4.44,0000 0000 0000 0000 000000
2013-09-04 01:46:59,0.06,0.53,0.00,27.28,28.37,30.56,5.68,29.38,1003.34,2047.00,3272.11,3187.14,3458.63,350.13,314.98,4.44,0000 0000 0000 0000 000000
2013-09-04 01:47:59,0.04,0.53,0.00,27.30,28.38,30.54,5.78,29.63,1003.21,2047.00,3272.06,3187.11,3458.46,350.29,315.39,4.45,0000 0000 0000 0000 000000
2013-09-04 01:49:00,0.03,0.53,0.00,27.31,28.39,30.53,5.81,29.58,1003.06,2047.00,3272.02,3187.05,3458.32,350.08,315.31,4.45,0000 0000 0000 0000 000000
2013-09-04 01:50:00,0.04,0.53,0.00,27.27,28.40,30.57,5.70,29.38,1003.00,2047.00,3272.03,3187.03,3458.20,349.15,314.32,4.46,0000 0000 0000 0000 000000
2013-09-04 01:51:00,0.01,0.53,0.00,27.29,28.40,30.56,5.60,29.54,1002.97,2047.00,3272.01,3187.01,3458.10,350.22,315.71,4.47,0000 0000 0000 0000 000000
2013-09-04 01:52:01,0.01,0.53,0.00,27.32,28.40,30.54,5.81,29.50,1002.97,2047.00,3272.00,3187.01,3458.04,350.18,315.19,4.47,0000 0000 0000 0000 000000
2013-09-04 01:53:01,0.00,0.53,0.00,27.30,28.41,30.55,5.79,29.58,1002.96,2047.00,3272.00,3187.00,3458.02,350.23,315.25,4.48,0000 0000 0000 0000 000000
2013-09-04 01:54:01,0.00,0.53,0.00,27.34,28.42,30.58,5.75,29.63,1002.95,2047.00,3272.00,3187.00,3458.01,349.68,314.70,4.48,0000 0000 0000 0000 000000
2013-09-04 01:55:01,0.00,0.53,0.00,27.33,28.42,30.61,5.71,29.50,1002.95,2047.00,3271.99,3187.00,3458.00,350.75,315.67,4.49,0000 0000 0000 0000 000000
2013-09-04 01:56:02,0.00,0.53,0.00,27.37,28.42,30.61,5.76,29.50,1002.95,2047.00,3271.90,3187.00,3458.00,349.71,314.78,4.49,0000 0000 0000 0000 000000
2013-09-04 01:57:02,0.01,0.53,0.00,27.41,28.42,30.59,5.84,29.46,1002.94,2047.00,3271.84,3187.00,3458.00,350.24,315.14,4.50,0000 0000 0000 0000 000000
2013-09-04 01:58:02,0.01,0.53,0.00,27.41,28.44,30.60,5.64,29.46,1002.95,2047.00,3271.51,3186.99,3458.00,349.52,314.20,4.51,0000 0000 0000 0000 000000
2013-09-04 01:59:02,0.04,0.53,0.00,27.38,28.45,30.60,5.73,29.75,1002.95,2047.00,3271.33,3186.98,3457.99,349.53,314.59,4.51,0000 0000 0000 0000 000000
2013-09-04 02:00:03,0.01,0.53,0.00,27.41,28.45,30.63,5.68,29.63,1002.94,2047.00,3271.14,3186.96,3457.95,349.54,314.50,4.52,0000 0000 0000 0000 000000
2013-09-04 02:01:03,0.04,0.53,0.00,27.41,28.45,30.64,5.62,29.54,1002.94,2047.00,3271.07,3186.90,3457.84,349.48,314.45,4.52,0000 0000 0000 0000 000000
2013-09-04 02:02:03,0.04,0.53,0.00,27.42,28.45,30.65,5.68,29.50,1002.94,2047.00,3271.03,3186.68,3457.50,349.74,314.36,4.53,0000 0000 0000 0000 000000
2013-09-04 02:03:03,0.11,0.53,0.00,27.41,28.47,30.67,5.67,29.58,1002.96,2047.00,3271.01,3186.42,3457.26,349.89,314.83,4.54,0000 0000 0000 0000 000000
2013-09-04 02:04:03,0.08,0.53,0.00,27.45,28.47,30.66,5.51,29.58,1002.98,2047.00,3271.00,3186.19,3457.12,350.14,314.94,4.54,0000 0000 0000 0000 000000
2013-09-04 02:05:04,0.07,0.53,0.00,27.50,28.47,30.70,5.75,29.67,1002.95,2047.00,3270.97,3186.07,3457.04,349.71,314.57,4.55,0000 0000 0000 0000 000000
2013-09-04 02:06:04,0.03,0.53,0.00,27.49,28.47,30.68,5.93,29.50,1002.96,2047.00,3270.91,3186.02,3457.01,350.94,315.73,4.55,0000 0000 0000 0000 000000
2013-09-04 02:07:04,0.02,0.53,0.00,27.38,28.49,30.63,5.89,29.58,1002.95,2047.00,3270.84,3186.00,3457.00,350.37,315.51,4.56,0000 0000 0000 0000 000000
2013-09-04 02:08:04,0.00,0.53,0.00,27.29,28.50,30.68,5.81,29.67,1002.94,2047.00,3270.74,3186.00,3457.00,350.33,314.99,4.56,0000 0000 0000 0000 000000
2013-09-04 02:09:04,0.01,0.53,0.00,27.26,28.50,30.70,5.79,29.42,1002.95,2047.00,3270.68,3186.00,3457.00,349.93,315.34,4.57,0000 0000 0000 0000 000000
2013-09-04 02:10:05,0.01,0.53,0.00,27.28,28.50,30.72,5.70,29.71,1002.94,2047.00,3270.46,3186.00,3456.99,349.33,314.62,4.58,0000 0000 0000 0000 000000
2013-09-04 02:11:05,0.03,0.53,0.00,27.31,28.50,30.71,5.74,29.79,1002.94,2047.00,3270.19,3186.00,3456.99,350.19,315.53,4.58,0000 0000 0000 0000 000000
2013-09-04 02:12:05,0.03,0.53,0.00,27.31,28.52,30.70,5.76,29.71,1002.94,2047.00,3270.10,3185.98,3456.96,349.18,314.02,4.59,0000 0000 0000 0000 000000
2013-09-04 02:13:05,0.01,0.53,0.00,27.30,28.52,30.71,5.76,29.79,1002.94,2047.00,3270.04,3185.96,3456.79,350.19,314.95,4.59,0000 0000 0000 0000 000000
2013-09-04 02:14:05,0.03,0.53,0.00,27.22,28.52,30.74,5.67,29.58,1002.94,2047.00,3270.01,3185.90,3456.50,351.32,316.38,4.60,0000 0000 0000 0000 000000
2013-09-04 02:15:06,0.04,0.53,0.00,27.25,28.53,30.75,5.86,29.67,1002.94,2046.99,3270.00,3185.82,3456.24,349.84,314.95,4.61,0000 0000 0000 0000 000000
2013-09-04 02:16:06,0.05,0.53,0.00,27.26,28.54,30.75,5.58,29.67,1002.94,2046.99,3270.00,3185.61,3456.10,349.19,314.35,4.61,0000 0000 0000 0000 000000
2013-09-04 02:17:06,0.06,0.53,0.00,27.29,28.55,30.74,5.55,29.50,1002.94,2046.99,3269.99,3185.43,3456.04,348.66,313.84,4.62,0000 0000 0000 0000 000000
2013-09-04 02:18:06,0.03,0.53,0.00,27.30,28.55,30.76,5.75,29.38,1002.94,2046.98,3269.94,3185.25,3456.03,350.92,315.87,4.62,0000 0000 0000 0000 000000
2013-09-04 02:19:07,0.05,0.53,0.00,27.24,28.55,30.77,5.89,29.50,1002.94,2046.97,3269.91,3185.12,3456.02,350.30,315.37,4.63,0000 0000 0000 0000 000000
2013-09-04 02:20:07,0.02,0.53,0.00,27.25,28.56,30.79,5.89,29.75,1002.95,2046.96,3269.75,3185.05,3456.00,350.09,315.18,4.64,0000 0000 0000 0000 000000
2013-09-04 02:21:07,0.03,0.53,0.00,27.26,28.57,30.76,5.88,29.71,1002.94,2046.96,3269.46,3185.02,3456.00,349.86,314.95,4.64,0000 0000 0000 0000 000000
2013-09-04 02:22:07,0.04,0.53,0.00,27.24,28.57,30.79,5.84,29.67,1002.94,2046.95,3269.27,3185.00,3456.00,350.22,315.51,4.65,0000 0000 0000 0000 000000
2013-09-04 02:23:08,0.00,0.53,0.00,27.24,28.57,30.76,5.63,29.58,1002.94,2046.93,3269.13,3185.00,3456.00,349.76,314.89,4.65,0000 0000 0000 0000 000000
2013-09-04 02:24:08,0.00,0.53,0.00,27.39,28.58,30.78,5.83,29.63,1002.94,2046.81,3269.05,3185.00,3455.99,350.64,315.52,4.66,0000 0000 0000 0000 000000
2013-09-04 02:25:08,-0.08,0.53,0.00,27.43,28.59,30.79,5.71,29.79,1002.94,2046.79,3269.02,3184.99,3455.92,349.97,314.78,4.66,0000 0000 0000 0000 000000
2013-09-04 02:26:09,0.01,0.53,0.00,27.45,28.60,30.80,5.81,29.42,1002.96,2046.74,3269.00,3184.99,3455.78,350.49,315.32,4.67,0000 0000 0000 0000 000000
2013-09-04 02:27:09,-0.04,0.53,0.00,27.47,28.60,30.84,5.74,29.50,1002.94,2046.65,3269.00,3184.99,3455.58,349.57,314.41,4.68,0000 0000 0000 0000 000000
2013-09-04 02:28:09,-0.04,0.53,0.00,27.50,28.60,30.83,5.69,29.50,1002.94,2046.41,3269.00,3184.91,3455.33,349.80,314.67,4.68,0000 0000 0000 0000 000000
2013-09-04 02:29:09,-0.15,0.53,0.00,27.52,28.61,30.83,5.83,29.50,1002.94,2046.21,3268.97,3184.74,3455.13,349.26,314.14,4.69,0000 0000 0000 0000 000000
2013-09-04 02:30:10,-0.07,0.53,0.00,27.53,28.62,30.86,5.83,29.63,1002.95,2046.16,3268.93,3184.55,3455.06,349.64,314.70,4.69,0000 0000 0000 0000 000000
2013-09-04 02:31:10,0.05,0.53,0.00,27.55,28.62,30.85,5.73,29.63,1002.95,2046.10,3268.69,3184.31,3455.02,350.33,314.78,4.70,0000 0000 0000 0000 000000
2013-09-04 02:32:10,0.02,0.53,0.00,27.62,28.62,30.86,5.63,29.58,1002.95,2046.08,3268.49,3184.13,3455.00,350.01,314.78,4.71,0000 0000 0000 0000 000000
2013-09-04 02:33:10,0.05,0.53,0.00,27.69,28.63,30.89,5.71,29.42,1002.94,2046.10,3268.28,3184.07,3455.00,351.07,315.59,4.71,0000 0000 0000 0000 000000
2013-09-04 02:34:11,0.07,0.53,0.00,27.74,28.65,30.91,5.92,29.42,1002.95,2046.06,3268.13,3184.02,3455.00,349.49,314.12,4.72,0000 0000 0000 0000 000000
2013-09-04 02:35:11,-0.01,0.53,0.00,27.77,28.65,30.92,5.84,29.46,1002.95,2046.03,3268.05,3184.00,3455.00,349.83,314.39,4.72,0000 0000 0000 0000 000000
2013-09-04 02:36:11,-0.01,0.53,0.00,27.80,28.65,30.91,5.78,29.50,1002.94,2046.01,3268.02,3184.00,3454.96,349.70,314.25,4.73,0000 0000 0000 0000 000000
2013-09-04 02:37:12,0.00,0.53,0.00,27.82,28.65,30.89,5.83,29.46,1002.94,2046.01,3268.00,3184.00,3454.82,350.43,314.88,4.73,0000 0000 0000 0000 000000